Location: Prairie Dale
(45.6972°N, 104.5033°W)
Time: 14:58:45
(UTC+00:00)

Envisat - Pass Details

Date: 24 January 2022
Orbit: 764 x 765 km, 98.2° (Epoch: 15 May)

Event Time Altitude Azimuth Distance (km) Brightness Sun altitude
Rises 10:34:34 0° 30° (NNE) 3,240 6.7 -40.5°
Reaches altitude 10° 10:37:48 10° 51° (NE) 2,309 6.1 -39.9°
Maximum altitude 10:40:55 16° 89° (E) 1,909 5.6 -39.4°
Drops below altitude 10° 10:44:00 10° 127° (SE) 2,299 5.8 -38.9°
Sets 10:47:11 0° 149° (SSE) 3,219 6.4 -38.3°
